Simultaneous Nadir Overpasses (SNOs) Predictions

Prediction of SNOs between AURA and NPP Satellite Orbit:

Table of predicted SNOs for the next 14.0 days since TLE Epoch: 1/29/2022
Index Date (AURA) Time (AURA) Lat,Lon (AURA) SZA (AURA ) Date (NPP) Time (NPP) Lat,Lon (NPP) SZA (NPP ) Distance(km) Time Diff (sec)
1 01/30/2022 19:08:39 -79.50, -30.19 69.83 01/30/2022 19:07:53 -79.51, -30.15 69.80 0.75 46
2 01/30/2022 19:57:58 79.76, 139.34 109.78 01/30/2022 19:58:29 79.77, 139.46 109.74 2.52 31
3 02/02/2022 11:25:10 -79.51, 85.74 70.57 02/02/2022 11:24:44 -79.51, 85.62 70.53 2.47 26
4 02/02/2022 12:14:29 79.77,-104.75 109.04 02/02/2022 12:15:20 79.77,-104.78 109.01 0.69 51
5 02/05/2022 03:41:37 -79.66,-157.33 71.56 02/05/2022 03:41:30 -79.67,-157.24 71.57 2.00 7
6 02/05/2022 04:30:59 79.80, 11.38 108.22 02/05/2022 04:32:10 79.80, 11.25 108.19 2.51 71
7 02/07/2022 19:08:47 79.41, 149.16 108.01 02/07/2022 19:07:43 79.41, 149.10 108.07 1.31 64
8 02/07/2022 19:58:06 -79.72, -40.99 72.46 02/07/2022 19:58:19 -79.72, -40.93 72.48 1.41 13
9 02/10/2022 11:25:14 79.50, -94.33 107.04 02/10/2022 11:24:30 79.50, -94.36 107.08 0.60 44



Historial Predications of SNOs between AURA and NPP
